Showing default

KUIPER-00148, 65769

Orbit data source: Space-Track

KUIPER-00148, 65769 is a payload satellite owned by Kuiper Systems (US) in LEO that was launched on Thu, 25 Sep 2025 UTC via an ATLAS V 551 launch vehicle from the Air Force Eastern Test Range (AFETR). Payload-class satellites include a variety of spacecraft equipped with specific instruments for various scientific and technological missions. These include communications satellites like Starlink; space stations such as the ISS; scientific satellites like the Hubble; Earth observation satellites from companies like Planet Labs, Umbra, and HawkEye 360; GPS; miniature CubeSats for education and research; and military/defense satellites.

Loading next visibility...
Identifier
65769, 2025-217H
Orbit
LEO
Country
Flag of USUS
Related business
Manufacturer
Kuiper Systems
Mission
Operational Commercial Communications
Bus & Motor
KUIPER, Unknown motor
Mass
~490 kg wet, ~490 kg dry
Launch date (UTC)
2025-09-25 (9 months ago)
Launch vehicle
ATLAS V 551
Launch site
Air Force Eastern Test Range (AFETR)
Object type
Payload
Rocket body
Debris
Shape & HBR
Box + 2 Pan, 3.4 m
Radar Cross Section
2.326 m², Large (>1 m²)

Expand to show TLE details & history
Last TLE update: 12 hours ago

TLE from 12 hours ago
0 KUIPER-00148
1 65769U 25217H   26171.32584794  .00002014  00000-0  32027-3 0  9993
2 65769  51.9042 288.6318 0000692 188.0012 172.0938 14.76038200 40363
Epoch: 2026-06-20T07:49Z
TLE epoch observation values (Epoch: 2026-06-20T07:49:13.262Z)
Latitude
0.00002°
Longitude
-97.21553°
Altitude
643.085 km
Speed
7.537 km/s
True Right ascension
19h 14m 31s
True Declination
0° 00' 00"
Sunlit
Object was in full shadow at epoch
Visualization orbit readout
Latitude
Unknown
Longitude
Unknown
Altitude
Unknown
Speed
Unknown
Apparent Right ascension
Unknown
Apparent Declination
Unknown
Sunlit
N/A
Visualization observer readout
Local Sidereal Time
07:11:37
Azimuth
Unknown
Elevation
Unknown
Doppler factor
Unknown
Orbital elements
Apogee altitude
642.793 km
Perigee altitude
641.821 km
Semi-major axis
7,020.444 km
Eccentricity
0.00007
Inclination
51.9042°
RAAN
288.6318°
Arg. of periapsis
188.0012°
True anomaly
172.09489°
Mean anomaly
172.0938°
Eccentric anomaly
172.09435°
Mean motion
3.68974 °/min
Orbital period
97.57 mins
BSTAR
0.00032027
Loading maneuver chart data...
Computing Atmospheric mass density...
Loading historical data...
Loading historical data...
Loading historical data...
Loading historical data...
Loading historical data...
Loading historical data...
Loading historical data...

Documentation

Showing up to 5 results
|